Location: Béaulencourt
(50.0796°N, 2.8795°E)
Time: 23:38:14
(UTC+00:00)

Lacrosse 4 Rocket - Pass Details

Date: 20 January 2026
Orbit: 512 x 564 km, 68.0° (Epoch: 17 February)

Event Time Altitude Azimuth Distance (km) Brightness Sun altitude
Exits shadow 04:45:37 30° 136° (SE) 943 2.8 -27.0°
Maximum altitude 04:46:17 33° 115° (ESE) 898 2.8 -26.9°
Drops below altitude 10° 04:49:47 10° 51° (NE) 1,751 4.5 -26.4°
Sets 04:52:05 0° 41° (NE) 2,639 5.4 -26.0°
